EW7144 Weather Reports


time (UTC)temp
F
wind
direction
speed
knots
gust
knots
rain 1hr
in
rain 24hr
in
rain mn
in
humidity
%
barometer
mb
20260904091906 53 264 7.0 18.2 0.00 0.00 0.00 76 1009.7
20260904091406 53 214 9.6 18.2 0.00 0.00 0.00 76 1009.4
20260904090906 53 237 7.8 17.4 0.00 0.00 0.00 76 1009.6
20260904090406 53 244 10.4 20.0 0.00 0.00 0.00 75 1009.6
20260904085906 53 229 6.1 19.1 0.00 0.00 0.00 76 1009.5
20260904085406 53 226 7.8 21.7 0.00 0.00 0.00 75 1009.5
20260904084906 53 228 10.4 21.7 0.00 0.00 0.00 75 1009.3
20260904084406 53 204 6.1 20.9 0.00 0.00 0.00 76 1009.2
20260904083906 53 224 11.3 21.7 0.00 0.00 0.00 75 1009.2
20260904083406 53 206 9.6 20.0 0.00 0.00 0.00 76 1009.1
20260904082907 53 223 8.7 20.0 0.00 0.00 0.00 77 1008.9
20260904081906 53 239 7.8 24.3 0.00 0.00 0.00 79 1008.7
20260904081406 53 200 10.4 20.0 0.00 0.00 0.00 80 1008.5
20260904080906 53 245 7.8 22.6 0.00 0.00 0.00 80 1008.3
20260904080406 53 210 12.2 24.3 0.00 0.00 0.00 81 1007.9
20260904075906 53 214 12.2 26.1 0.00 0.00 0.00 81 1007.8
20260904075406 53 317 10.4 24.3 0.00 0.00 0.00 81 1007.7
20260904074906 52 219 8.7 22.6 0.00 0.00 0.00 82 1007.8
20260904074410 52 201 7.0 20.9 0.00 0.00 0.00 82 1007.7
20260904073406 51 214 7.8 21.7 0.00 0.00 0.00 81 1007.9
20260904072906 51 202 9.6 20.9 0.00 0.00 0.00 81 1007.8
20260904072406 51 206 9.6 22.6 0.00 0.00 0.00 81 1007.6
20260904071906 51 234 9.6 20.0 0.00 0.00 0.00 81 1007.6
20260904065406 50 214 15.6 27.8 0.00 0.00 0.00 84 1007.5
20260904064906 49 211 14.8 31.3 0.00 0.00 0.00 85 1007.3
20260904064406 49 217 13.0 27.8 0.00 0.00 0.00 86 1007.3
20260904063906 49 221 13.9 30.4 0.00 0.00 0.00 86 1007.3
20260904063406 49 248 13.0 22.6 0.00 0.00 0.00 87 1007.1
20260904062906 49 212 11.3 26.9 0.00 0.00 0.00 87 1007.2
20260904062406 49 222 11.3 24.3 0.00 0.00 0.00 86 1007.3
20260904061907 50 225 12.2 27.8 0.00 0.00 0.00 86 1007.6
20260904061406 50 201 10.4 25.2 0.00 0.00 0.00 85 1007.7
20260904060406 52 232 12.2 25.2 0.00 0.00 0.00 82 1007.9
20260904055906 54 283 12.2 21.7 0.00 0.00 0.00 81 1007.6
20260904055405 55 320 13.0 24.3 0.00 0.00 0.00 80 1007.3
20260904054906 55 321 8.7 19.1 0.00 0.00 0.00 81 1007.1
20260904054405 55 319 8.7 22.6 0.00 0.00 0.00 80 1006.9
20260904053406 55 300 9.6 20.0 0.00 0.00 0.00 80 1007.0
20260904052905 55 307 11.3 28.7 0.00 0.00 0.00 80 1007.0
20260904052406 55 236 10.4 22.6 0.00 0.00 0.00 80 1007.1
20260904051906 55 244 10.4 21.7 0.00 0.00 0.00 80 1007.0
20260904050906 54 233 7.8 18.2 0.00 0.00 0.00 81 1007.2
20260904050405 54 250 10.4 20.0 0.00 0.00 0.00 82 1007.1
20260904045906 54 235 10.4 24.3 0.00 0.00 0.00 83 1007.1
20260904045405 52 308 7.8 17.4 0.00 0.00 0.00 84 1007.1
20260904044906 51 301 7.8 17.4 0.00 0.00 0.00 85 1007.3
20260904044405 51 264 10.4 19.1 0.00 0.00 0.00 84 1007.3
20260904043905 51 252 9.6 22.6 0.00 0.00 0.00 84 1007.4
20260904043405 51 205 12.2 22.6 0.00 0.00 0.00 84 1007.5
20260904042406 54 235 13.9 32.2 0.00 0.00 0.00 83 1007.1
20260904041906 54 225 9.6 20.9 0.00 0.00 0.00 84 1006.6
20260904041406 55 264 9.6 19.1 0.00 0.00 0.00 84 1006.6
20260904040905 54 221 8.7 20.9 0.00 0.00 0.00 84 1006.7
20260904040406 54 272 10.4 19.1 0.00 0.00 0.00 81 1006.7
20260904035905 56 271 8.7 21.7 0.00 0.00 0.00 78 1007.2
20260904035405 58 317 11.3 25.2 0.00 0.00 0.00 75 1006.6
20260904034905 59 326 12.2 25.2 0.00 0.00 0.00 74 1006.6
20260904034405 59 341 8.7 22.6 0.00 0.00 0.00 73 1006.4
20260904033905 59 272 10.4 20.9 0.00 0.00 0.00 73 1006.2
20260904033406 59 295 10.4 22.6 0.00 0.00 0.00 74 1006.2
20260904032906 59 320 7.0 19.1 0.00 0.00 0.00 76 1005.9
20260904031906 57 293 7.8 17.4 0.00 0.00 0.00 76 1006.0
20260904031406 57 283 8.7 20.0 0.00 0.00 0.00 74 1006.1
20260904030905 58 322 11.3 20.0 0.00 0.00 0.00 73 1006.2
20260904030406 59 252 9.6 22.6 0.00 0.00 0.00 71 1006.0
20260904025406 59 302 8.7 20.9 0.00 0.00 0.00 71 1006.2
20260904024905 59 315 9.6 20.9 0.00 0.00 0.00 70 1005.9
20260904024406 59 300 10.4 20.9 0.00 0.00 0.00 70 1006.0
20260904023406 60 224 8.7 19.1 0.00 0.00 0.00 71 1005.8
20260904022905 59 296 9.6 22.6 0.00 0.00 0.00 71 1005.8
20260904022406 59 238 10.4 24.3 0.00 0.00 0.00 70 1005.8
20260904021905 59 225 11.3 26.1 0.00 0.00 0.00 70 1005.6
20260904021406 59 221 11.3 22.6 0.00 0.00 0.00 70 1005.6
20260904020906 60 259 8.7 25.2 0.00 0.00 0.00 71 1005.6
20260904020406 60 214 10.4 22.6 0.00 0.00 0.00 71 1005.6
20260904015905 59 332 7.8 19.1 0.00 0.00 0.00 70 1005.6
20260904015405 60 333 9.6 20.0 0.00 0.00 0.00 72 1005.7
20260904014906 60 317 8.7 22.6 0.00 0.00 0.00 73 1005.7
20260904014406 60 340 6.1 19.1 0.00 0.00 0.00 74 1005.8
20260904013905 60 327 8.7 17.4 0.00 0.00 0.00 73 1005.8
20260904013406 60 330 10.4 19.1 0.00 0.00 0.00 73 1005.9
20260904012906 60 331 8.7 17.4 0.00 0.00 0.00 72 1006.0
20260904011905 60 216 9.6 19.1 0.00 0.00 0.00 70 1006.1
20260904011406 60 324 10.4 22.6 0.00 0.00 0.00 70 1006.1
20260904010906 60 238 8.7 19.1 0.00 0.00 0.00 70 1006.1
20260904010405 60 336 7.8 17.4 0.00 0.00 0.00 69 1006.2
20260904005906 60 326 7.0 17.4 0.00 0.00 0.00 71 1006.3
20260904005406 59 285 7.0 17.4 0.00 0.00 0.00 71 1006.3
20260904004905 60 280 8.7 18.2 0.00 0.00 0.00 72 1006.4
20260904004406 60 311 8.7 20.9 0.00 0.00 0.00 73 1006.4
20260904003906 60 293 7.8 24.3 0.00 0.00 0.00 74 1006.2
20260904003406 59 298 10.4 19.1 0.00 0.00 0.00 73 1006.2
20260904002906 60 341 7.8 20.9 0.00 0.00 0.00 73 1006.2
20260904002405 60 291 7.8 20.9 0.00 0.00 0.00 74 1006.2
20260904001908 59 258 10.4 20.9 0.00 0.00 0.00 71 1006.1
20260904000906 59 332 10.4 22.6 0.00 0.00 0.00 72 1006.1
20260904000406 59 282 8.7 22.6 0.00 0.00 0.00 73 1005.9
20260903235907 59 320 6.1 25.2 0.00 0.00 0.00 75 1006.0
20260903235406 59 320 7.8 17.4 0.00 0.00 0.00 75 1005.9
20260903234906 59 294 8.7 20.0 0.00 0.00 0.00 74 1005.7
20260903234406 59 293 10.4 26.1 0.00 0.00 0.00 74 1005.5
20260903233906 59 313 8.7 18.2 0.00 0.00 0.00 75 1005.5
20260903233406 59 336 10.4 22.6 0.00 0.00 0.00 74 1005.3
20260903232906 59 318 9.6 25.2 0.00 0.00 0.00 75 1005.3
20260903231906 59 323 8.7 17.4 0.00 0.00 0.00 75 1005.3
20260903230905 59 236 7.8 15.6 0.00 0.00 0.00 74 1005.3
20260903225906 58 281 8.7 22.6 0.00 0.00 0.00 77 1005.2
20260903225406 58 325 11.3 22.6 0.00 0.00 0.00 75 1005.2
20260903224406 58 327 7.8 22.6 0.00 0.00 0.00 78 1004.8
20260903223906 58 249 9.6 20.9 0.00 0.00 0.00 79 1004.8
20260903223406 58 301 7.8 22.6 0.00 0.00 0.00 80 1004.9
20260903222906 57 222 8.7 27.8 0.00 0.00 0.00 80 1004.9
20260903222406 57 205 9.6 20.0 0.00 0.00 0.00 80 1004.9
20260903221906 57 230 10.4 24.3 0.00 0.00 0.00 84 1004.9
20260903221405 56 257 7.8 21.7 0.00 0.00 0.00 86 1004.8
20260903220905 56 232 10.4 20.9 0.00 0.00 0.00 86 1004.8
20260903220406 55 222 7.8 19.1 0.00 0.00 0.00 87 1004.8
20260903215906 55 339 7.8 21.7 0.00 0.00 0.00 87 1004.8
20260903215405 56 299 12.2 26.1 0.00 0.00 0.00 86 1004.7
20260903214906 58 350 13.9 25.2 0.00 0.00 0.00 86 1004.7
20260903213906 59 337 7.8 20.0 0.00 0.00 0.00 88 1004.3
20260903213405 59 328 8.7 20.9 0.00 0.00 0.00 88 1004.3
20260903212906 58 314 11.3 24.3 0.00 0.00 0.00 89 1004.3
20260903212406 58 315 10.4 24.3 0.00 0.00 0.00 89 1004.3
20260903211405 58 342 7.8 20.9 0.00 0.00 0.00 90 1004.2
20260903210906 58 302 8.7 20.0 0.00 0.00 0.00 90 1004.1
20260903205906 57 315 9.6 20.9 0.00 0.00 0.00 91 1004.3
20260903205406 57 318 8.7 20.0 0.00 0.00 0.00 90 1004.2
20260903204906 57 309 6.1 17.4 0.00 0.00 0.00 91 1004.3
20260903204406 57 289 10.4 19.1 0.00 0.00 0.00 91 1004.2
20260903203406 57 319 11.3 20.9 0.00 0.00 0.00 91 1004.2
20260903202906 57 327 10.4 25.2 0.00 0.00 0.00 91 1004.2
20260903202405 57 327 9.6 19.1 0.00 0.00 0.00 91 1004.2
20260903201905 58 334 12.2 21.7 0.00 0.00 0.00 91 1004.1
20260903201406 57 328 15.6 30.4 0.00 0.00 0.00 91 1004.0
20260903200906 57 333 16.5 34.8 0.00 0.00 0.00 91 1003.9
20260903200406 58 351 15.6 30.4 0.00 0.00 0.00 91 1004.0
20260903195905 58 339 12.2 21.7 0.00 0.00 0.00 91 1003.9
20260903194905 58 341 14.8 26.1 0.00 0.00 0.00 91 1003.9
20260903194405 58 322 15.6 26.9 0.00 0.00 0.00 91 1004.0
20260903193906 58 348 17.4 27.8 0.00 0.00 0.00 91 1004.1
20260903193406 58 331 18.2 32.2 0.00 0.00 0.00 91 1003.9
20260903192906 58 349 18.2 34.8 0.00 0.00 0.00 91 1003.7
20260903192405 58 341 15.6 27.8 0.00 0.00 0.00 91 1003.6
20260903191906 58 338 18.2 33.0 0.00 0.00 0.00 91 1003.6
20260903191406 58 351 19.1 27.8 0.00 0.00 0.00 91 1003.6
20260903190905 58 345 15.6 28.7 0.00 0.00 0.00 91 1003.5
20260903185905 58 351 14.8 25.2 0.00 0.00 0.00 91 1003.6
20260903185406 58 343 11.3 22.6 0.00 0.00 0.00 91 1003.9
20260903184906 58 347 13.0 20.9 0.00 0.00 0.00 91 1004.1
20260903184406 58 346 12.2 25.2 0.00 0.00 0.00 91 1004.4
20260903183406 58 342 13.9 27.8 0.00 0.00 0.00 91 1004.7
20260903182906 58 342 14.8 24.3 0.00 0.00 0.00 91 1004.7
20260903182405 58 346 13.0 21.7 0.00 0.00 0.00 91 1004.9
20260903181905 58 353 10.4 20.0 0.00 0.00 0.00 91 1005.1
20260903181406 58 333 13.9 25.2 0.00 0.00 0.00 91 1005.4
20260903180905 58 340 12.2 22.6 0.00 0.00 0.00 91 1005.4
20260903180405 58 348 8.7 25.2 0.00 0.00 0.00 91 1005.5
20260903175906 58 346 12.2 24.3 0.00 0.00 0.00 91 1005.7
20260903174406 58 347 14.8 30.4 0.00 0.00 0.00 91 1005.8
20260903173405 58 358 11.3 24.3 0.00 0.00 0.00 91 1005.7
20260903172906 58 349 13.0 26.1 0.00 0.00 0.00 91 1005.6
20260903172405 58 329 15.6 26.9 0.00 0.00 0.00 91 1005.6
20260903171906 58 333 15.6 27.8 0.00 0.00 0.00 91 1005.7
20260903171405 58 336 18.2 32.2 0.00 0.00 0.00 91 1005.7
20260903170906 58 356 14.8 22.6 0.00 0.00 0.00 91 1005.9
20260903170406 58 338 12.2 27.8 0.00 0.00 0.00 91 1006.1
20260903165905 58 348 15.6 25.2 0.00 0.00 0.00 91 1006.3
20260903165406 58 334 14.8 28.7 0.00 0.00 0.00 91 1006.2
20260903164905 58 345 13.9 26.9 0.00 0.00 0.00 91 1006.2
20260903164405 58 339 14.8 26.9 0.00 0.00 0.00 91 1006.2
20260903163906 58 353 13.9 27.8 0.00 0.00 0.00 91 1006.1
20260903163406 58 334 13.0 25.2 0.00 0.00 0.00 91 1006.1
20260903162906 58 356 15.6 28.7 0.00 0.00 0.00 91 1006.1
20260903162406 58 342 15.6 28.7 0.00 0.00 0.00 91 1006.1
20260903160905 58 340 14.8 27.8 0.00 0.00 0.00 91 1006.3
20260903160405 58 346 14.8 26.9 0.00 0.00 0.00 91 1006.5
20260903155406 58 334 14.8 22.6 0.00 0.00 0.00 91 1006.8
20260903154905 58 345 14.8 26.9 0.00 0.00 0.00 91 1006.8
20260903154406 58 350 14.8 22.6 0.00 0.00 0.00 91 1007.0
20260903153905 58 345 14.8 28.7 0.00 0.00 0.00 91 1007.2
20260903153406 58 347 12.2 19.1 0.00 0.00 0.00 91 1007.3
20260903152905 58 347 12.2 26.1 0.00 0.00 0.00 91 1007.4
20260903152405 58 342 13.0 22.6 0.00 0.00 0.00 91 1007.5
20260903151906 58 346 13.9 21.7 0.00 0.00 0.00 91 1007.6
20260903151405 58 336 10.4 20.9 0.00 0.00 0.00 91 1007.7
20260903150406 58 331 10.4 20.0 0.00 0.00 0.00 91 1008.0
20260903145905 58 342 12.2 19.1 0.00 0.00 0.00 91 1008.2
20260903144905 58 346 12.2 22.6 0.00 0.00 0.00 91 1008.3
20260903144406 58 336 10.4 20.0 0.00 0.00 0.00 91 1008.4
20260903143908 58 351 11.3 18.2 0.00 0.00 0.00 91 1008.6
20260903143405 58 333 9.6 21.7 0.00 0.00 0.00 91 1008.7
20260903142905 58 338 12.2 25.2 0.00 0.00 0.00 91 1008.8
20260903142405 58 342 11.3 20.0 0.00 0.00 0.00 91 1008.9
20260903141906 58 344 13.9 20.9 0.00 0.00 0.00 91 1009.0
20260903141405 58 350 12.2 24.3 0.00 0.00 0.00 91 1009.1
20260903140906 58 344 10.4 20.9 0.00 0.00 0.00 91 1009.2
20260903135905 58 343 10.4 20.0 0.00 0.00 0.00 91 1009.4
20260903134405 58 347 9.6 20.9 0.00 0.00 0.00 91 1009.4
20260903133906 58 353 10.4 21.7 0.00 0.00 0.00 91 1009.5
20260903133406 58 345 12.2 22.6 0.00 0.00 0.00 91 1009.5
20260903132905 58 350 13.9 22.6 0.00 0.00 0.00 91 1009.3
20260903131905 58 331 8.7 26.9 0.00 0.00 0.00 91 1009.4
20260903131406 58 332 11.3 20.9 0.00 0.00 0.00 91 1009.5
20260903130906 58 338 10.4 19.1 0.00 0.00 0.00 91 1009.6
20260903130405 58 344 8.7 17.4 0.00 0.00 0.00 91 1009.6
20260903125906 58 350 8.7 17.4 0.00 0.00 0.00 91 1009.5
20260903124405 58 2 11.3 19.1 0.00 0.00 0.00 91 1009.6
20260903123906 58 355 12.2 25.2 0.00 0.00 0.00 91 1009.6
20260903123406 58 343 13.0 20.0 0.00 0.00 0.00 91 1009.7
20260903121910 58 349 9.6 18.2 0.00 0.00 0.00 91 1009.7
20260903121406 58 349 12.2 17.4 0.00 0.00 0.00 91 1009.8
20260903120406 58 358 11.3 18.2 0.00 0.00 0.00 91 1010.0
20260903115905 58 358 9.6 18.2 0.00 0.00 0.00 91 1010.1
20260903115407 58 353 7.8 13.9 0.00 0.00 0.00 91 1010.1
20260903114405 58 352 10.4 19.1 0.00 0.00 0.00 91 1010.3
20260903112905 57 348 5.2 12.2 0.00 0.00 0.00 91 1010.5
20260903112406 58 350 7.0 17.4 0.00 0.00 0.00 91 1010.7
20260903111906 58 347 10.4 17.4 0.00 0.00 0.00 91 1010.8
20260903111406 58 345 11.3 20.0 0.00 0.00 0.00 91 1010.9
20260903110906 58 351 12.2 20.9 0.00 0.00 0.00 91 1010.9
20260903110407 58 353 11.3 22.6 0.00 0.00 0.00 91 1011.0
20260903104405 58 339 7.8 13.9 0.00 0.00 0.00 91 1011.3
20260903103905 58 345 5.2 14.8 0.00 0.00 0.00 91 1011.3
20260903103406 58 344 7.0 13.0 0.00 0.00 0.00 91 1011.4
20260903102905 58 335 8.7 14.8 0.00 0.00 0.00 91 1011.4
20260903102406 58 341 5.2 13.9 0.00 0.00 0.00 91 1011.6
20260903101906 58 334 8.7 13.0 0.00 0.00 0.00 91 1011.6
20260903101405 58 346 7.8 13.9 0.00 0.00 0.00 91 1011.6
20260903100906 58 347 6.1 13.0 0.00 0.00 0.00 91 1011.6
20260903100405 58 347 7.8 14.8 0.00 0.00 0.00 91 1011.7
20260903095905 58 341 6.1 12.2 0.00 0.00 0.00 91 1011.8
20260903095405 58 325 6.1 11.3 0.00 0.00 0.00 91 1011.8
20260903094906 58 328 7.8 10.4 0.00 0.00 0.00 91 1011.8
20260903094405 58 329 4.3 10.4 0.00 0.00 0.00 91 1011.8
20260903093905 58 345 5.2 10.4 0.00 0.00 0.00 91 1011.7
20260903093406 58 337 6.1 12.2 0.00 0.00 0.00 91 1011.7